Weather History for Hill City, KS

Change the Weather History Date:

Wednesday, March 6, 2013

  Actual Average Record
Temperature  
Mean Temperature 33 °F 39 °F  
Max Temperature 48 °F 53 °F 93 °F (1972)
Min Temperature 17 °F 25 °F -3 °F (1989)
Degree Days  
Heating Degree Days 34    
Moisture  
Dew Point 22 °F    
Average Humidity 69    
Maximum Humidity 88    
Minimum Humidity 44    
Precipitation  
Precipitation 0.00 in 0.05 in 0.00 in (2014)
Month to date precipitation 0.01 0.20  
Year to date precipitation 1.20 1.17  
Sea Level Pressure  
Sea Level Pressure 30.26 in    
Wind  
Wind Speed 8 mph (SE)    
Max Wind Speed 22 mph    
Max Gust Speed 29 mph    
Visibility 10 miles    
Events      
T = Trace of Precipitation, MM = Missing Value Source: NWS Daily Summary

Daily Weather History Graph

Daily Weather History Graph

Search for Another Location

Airport:

Trip Planner

Search our weather history database for the weather conditions in past years. The results will help you decide how hot, cold, wet, or windy it might be!

Date:

Astronomy

Mar. 06, 2013 Rise Set
Actual Time 7:04 AM CST 6:37 PM CST
Civil Twilight 6:37 AM CST 7:04 PM CST
Nautical Twilight 6:06 AM CST 7:35 PM CST
Astronomical Twilight 5:35 AM CST 8:06 PM CST
Moon 3:13 AM CST (3/6) 1:22 PM CST (3/6)
Length of Visible Light 12h 26m
Length of Day
11h 33m
Waning Crescent, 29% of the Moon is Illuminated
Mar 6
Waning Crescent
Mar 11
New
Mar 19
First Quarter
Mar 27
Full
Apr 2
Last Quarter

Hourly Weather History & Observations

Time (CST) Temp. Windchill Dew Point Humidity Pressure Visibility Wind Dir Wind Speed Gust Speed Precip Events Conditions
12:53 AM 19.0 °F 12.3 °F 16.0 °F 88% 30.42 in 10.0 mi ENE 4.6 mph - N/A   Clear
1:53 AM 18.0 °F - 15.1 °F 88% 30.43 in 10.0 mi Calm Calm - N/A   Clear
2:53 AM 18.0 °F - 15.1 °F 88% 30.41 in 10.0 mi Calm Calm - N/A   Clear
3:53 AM 19.0 °F 13.9 °F 15.1 °F 85% 30.39 in 10.0 mi East 3.5 mph - N/A   Clear
4:53 AM 19.0 °F 12.3 °F 15.1 °F 85% 30.39 in 10.0 mi ENE 4.6 mph - N/A   Clear
6:53 AM 17.1 °F 10.0 °F 14.0 °F 88% 30.41 in 10.0 mi East 4.6 mph - N/A   Clear
7:53 AM 21.0 °F 13.4 °F 17.1 °F 85% 30.40 in 10.0 mi ESE 5.8 mph - N/A   Clear
8:53 AM 27.0 °F 16.1 °F 19.9 °F 75% 30.39 in 10.0 mi SE 12.7 mph - N/A   Clear
9:53 AM 30.9 °F 21.7 °F 21.0 °F 67% 30.38 in 10.0 mi SE 11.5 mph - N/A   Clear
10:53 AM 35.1 °F 25.2 °F 21.0 °F 57% 30.35 in 10.0 mi SE 16.1 mph - N/A   Clear
11:53 AM 37.9 °F 27.3 °F 21.9 °F 53% 30.30 in 10.0 mi SE 21.9 mph 28.8 mph N/A   Clear
12:53 PM 42.1 °F 34.2 °F 23.0 °F 47% 30.27 in 10.0 mi SE 16.1 mph 27.6 mph N/A   Clear
1:53 PM 43.0 °F 35.1 °F 24.1 °F 47% 30.23 in 10.0 mi SSE 17.3 mph 27.6 mph N/A   Clear
2:53 PM 46.0 °F 38.8 °F 25.0 °F 44% 30.19 in 10.0 mi SSE 18.4 mph 24.2 mph N/A   Clear
3:53 PM 46.0 °F 38.8 °F 27.0 °F 47% 30.15 in 10.0 mi SE 18.4 mph 26.5 mph N/A   Clear
4:53 PM 46.0 °F 38.5 °F 27.0 °F 47% 30.13 in 10.0 mi SE 19.6 mph 26.5 mph N/A   Clear
5:53 PM 44.1 °F 36.2 °F 27.0 °F 51% 30.12 in 10.0 mi SSE 18.4 mph 24.2 mph N/A   Clear
6:53 PM 39.0 °F 30.6 °F 27.0 °F 62% 30.12 in 10.0 mi SE 15.0 mph - N/A   Clear
7:53 PM 35.1 °F 26.9 °F 27.0 °F 72% 30.13 in 10.0 mi SE 11.5 mph - N/A   Clear
8:53 PM 33.1 °F 25.5 °F 26.1 °F 75% 30.12 in 10.0 mi ESE 9.2 mph - N/A   Clear
9:53 PM 30.9 °F 23.5 °F 26.1 °F 82% 30.12 in 10.0 mi ESE 8.1 mph - N/A   Clear
10:53 PM 30.0 °F 24.1 °F 25.0 °F 82% 30.12 in 10.0 mi ESE 5.8 mph - N/A   Clear
11:53 PM 30.0 °F 21.7 °F 25.0 °F 82% 30.08 in 10.0 mi ESE 9.2 mph - N/A   Clear